Regional Weather Roundup
Issued by NWS

Home | Current Version | Previous Version | Text Only | Print | Product List | Glossary On
Versions: 1 2 3 4 5 6 7 8 9 10 11 12 13 14 15 16 17 18 19 20 21 22 23 24 25 26 27 28 29 30 31 32 33 34 35 36 37 38 39 40 41 42 43 44 45 46 47 48 49 50
500
ASUS44 KLIX 241101
RWRLA
LOUISIANA WEATHER ROUNDUP
NATIONAL WEATHER SERVICE NEW ORLEANS LA
500 AM CST MON NOV 24 2014

NOTE: "FAIR" INDICATES FEW OR NO CLOUDS BELOW 12,000 FEET WITH NO
      SIGNIFICANT WEATHER AND/OR OBSTRUCTIONS TO VISIBILITY.
      SKY/WX - SKY CONDITION AND SIGNIFICANT WEATHER.
      TMP - AIR TEMPERATURE.    DP   - DEWPOINT TEMPERATURE.
      RH  - RELATIVE HUMIDITY.  PRES - PRESSURE.
      HX  - HEAT INDEX.         WCI  - WIND CHILL INDEX.

*  THESE STATIONS ARE NOT NWS OR FAA STATIONS AND ARE NOT UNDER
   NWS QUALITY CONTROL.

LAZ040-048-061>063-065-066-069-241200-
SOUTHEAST LOUISIANA

CITY           SKY/WX    TMP DP  RH WIND       PRES   REMARKS
N.O. AUDUBON   NOT AVBL
N.O. INTL ARPT PTCLDY    66  64  93 SW6       29.78R
N.O. LAKEFRONT MOCLDY    66  64  93 SW14      29.78R FOG
N.O. DOWNTOWN* CLOUDY    66  63  88 SW5       29.79R
SLIDELL        CLOUDY    68  66  93 VRB6      29.78R FOG
BATON ROUGE    PTCLDY    63  61  93 W6        29.78R
BOOTHVILLE     FOG       64  64 100 SW5       29.79S VSB 1/2
BELLE CHASSE   CLOUDY    69  65  86 SW7       29.78R
BOGALUSA*        N/A     66  63  89 W6        29.79R FOG
NEW ROADS*     NOT AVBL
GONZALES*      NOT AVBL
HAMMOND*       NOT AVBL
HOUMA*         CLOUDY    69  68  98 W3        29.79R FOG
PORT FOURCHON* SUNNY     70  68  94 SW8       29.83R FOG

$$

LAZ041-044-053-054-241200-
SOUTHWEST LOUISIANA

CITY           SKY/WX    TMP DP  RH WIND       PRES   REMARKS
LAKE CHARLES   CLEAR     57  47  69 NW14G22   29.83R
LAFAYETTE      CLEAR     62  58  86 NW9       29.79R
PATTERSON      CLOUDY    66  64  94 W9        29.81R
SALT POINT       N/A    N/A N/A N/A CALM      29.79R
NEW IBERIA     CLEAR     63  61  93 W6        29.79R
CHENAULT AIRPK NOT AVBL

$$

LAZ027-028-241200-
CENTRAL LOUISIANA

CITY           SKY/WX    TMP DP  RH WIND       PRES   REMARKS
FORT POLK      CLEAR     52  44  76 NW13G20   29.82R
ALEXANDRIA INT CLEAR     53  46  77 NW18      29.80R
ALEXANDRIA     CLEAR     55  46  71 NW8       29.80R

$$

LAZ001-002-241200-
NORTHWEST LOUISIANA

CITY           SKY/WX    TMP DP  RH WIND       PRES   REMARKS
SHREVEPORT     PTCLDY    50  40  68 NW12      29.85R
BARKSDALE AFB  MOCLDY    51  39  65 NW16G22   29.85R
DTN SHREVEPORT MOCLDY    50  38  63 NW12G22   29.85R

$$

LAZ014-016-241200-
NORTHEAST LOUISIANA

CITY           SKY/WX    TMP DP  RH WIND       PRES   REMARKS
MONROE         CLOUDY    53  45  74 NW14      29.81R
TALLULAH       CLEAR     56  49  77 W8G20     29.77R

$$




USA.gov is the U.S. government's official web portal to all federal, state and local government web resources and services.